Location: Asheville, NC
(35.6000°N, 82.5500°W)
Time: 16:04:53
(UTC-05:00)

SO-50 - Pass Details

Date: 03 January 2018
Orbit: 611 x 676 km, 64.6° (Epoch: 15 January)

Event Time Altitude Azimuth Distance (km) Brightness Sun altitude
Rises 19:01:51 0° 337° (NNW) 2,968 ? -18.2°
Reaches altitude 10° 19:04:16 10° 345° (NNW) 2,065 ? -18.7°
Enters shadow 19:08:37 41° 53° (NE) 963 ? -19.6°
